www.pogodaiklimat.ru

Погода и климат >> Архив погоды >> Австралия >> Birdsville Airport


ПОГОДА в Birdsville Airport

  • Прогноз погоды в Birdsville Airport
  • Монитор погоды в Birdsville Airport
  • Климат города

АРХИВ ПОГОДЫ в Birdsville Airport

Время (UTC), дата Ветер
(напр.,м/с)
 
Видим.   Явления Облачность Т
(С)
Тd
(С)
f
(%)
Тe
(С)
Тes
(С)
Комфортность P
(гПа)
Po
(гПа)
Тmin
(С)
Tmax
(С)
R
(мм)
R24
(мм)
S
(см)
05 17.06 Ю 6 н/о н/о +17.1 +1.5 35 +16 +16 1026.2 1020.5
06 17.06 Ю 5 н/о н/о +17.1 +1.1 34 +16 +16 1025.9 1020.2
08 17.06 Ю 4 н/о н/о +15.2 +1.4 39 +14 +14 1026.3 1020.6
09 17.06 Ю 4 н/о н/о +13.4 +0.4 41 +12 +12 1026.8 1021.1
11 17.06 Ю 4 н/о н/о +11.1 -1.0 43 +9 +9 1027.9 1022.2
12 17.06 Ю 4 н/о н/о +9.8 -2.5 42 +8 +8 1028.1 1022.4
14 17.06 Ю 4 н/о н/о +8.2 -3.6 43 +6 +6 1028.2 1022.5 +18.0
15 17.06 Ю 3 н/о н/о +7.5 -3.9 44 +5 +5 1028.2 1022.5
17 17.06 Ю 3 н/о н/о +5.6 -3.2 53 +3 +3 1027.9 1022.2
18 17.06 Ю 2 н/о н/о +4.4 -4.1 54 +3 +3 1027.9 1022.2
20 17.06 Ю 2 н/о н/о +3.1 -4.8 56 +1 +1 1027.8 1022.1
21 17.06 ЮЗ 4 н/о н/о +3.1 -3.9 60 -1 -1 1028.2 1022.5
23 17.06 Ю 3 н/о н/о +6.2 -2.7 53 +4 +4 1029.5 1023.8
00 18.06 ЮВ 5 н/о н/о +10.7 -0.4 46 +8 +8 1029.8 1024.1
02 18.06 ЮВ 6 н/о н/о +15.1 +0.2 36 +14 +14 1028.9 1023.2 +2.7
03 18.06 Ю 6 н/о н/о +15.6 -0.2 34 +14 +14 1027.7 1022.0
05 18.06 Ю 5 н/о н/о +16.7 -1.4 29 +16 +16 1026.0 1020.3
06 18.06 ЮВ 6 н/о н/о +16.6 -1.0 30 +16 +16 1025.8 1020.1
08 18.06 Ю 4 н/о н/о +15.3 -0.4 34 +14 +14 1026.1 1020.4
09 18.06 ЮВ 3 н/о н/о +13.0 -0.6 39 +12 +12 1026.4 1020.7
11 18.06 ЮВ 3 н/о н/о +9.9 -0.9 47 +8 +8 1026.7 1021.0
12 18.06 Ю 3 н/о н/о +8.6 -1.8 48 +7 +7 1026.5 1020.8
14 18.06 Ю 4 н/о н/о +7.5 -1.4 53 +5 +5 1026.7 1021.0 +17.4
15 18.06 Ю 4 н/о н/о +7.1 -1.1 56 +4 +4 1027.1 1021.4
17 18.06 ЮВ 4 н/о н/о +5.5 -1.6 60 +2 +2 1026.2 1020.5
18 18.06 ЮВ 3 н/о н/о +4.8 -1.8 62 +2 +2 1025.8 1020.1
20 18.06 Ю 3 н/о н/о +3.0 -2.9 65 -0 -0 1026.8 1021.1
21 18.06 Ю 3 н/о н/о +2.9 -2.4 68 -0 -0 1027.5 1021.8
23 18.06 ЮВ 3 н/о н/о +6.3 -1.3 58 +4 +4 1028.2 1022.5
00 19.06 В 5 н/о н/о +11.7 +1.4 49 +10 +10 1028.1 1022.4
02 19.06 В 5 н/о н/о +15.0 +0.4 37 +14 +14 1026.6 1020.9 +2.5
03 19.06 СВ 4 н/о н/о +15.9 +0.1 34 +15 +15 1025.6 1019.9
05 19.06 В 3 н/о н/о +17.1 -1.1 29 +17 +17 1024.0 1018.3
06 19.06 В 2 н/о н/о +17.7 -1.0 28 +18 +18 1023.5 1017.8
08 19.06 В 2 н/о н/о +16.0 -2.0 29 +16 +16 1023.8 1018.1
09 19.06 В 3 н/о н/о +14.1 -2.3 32 +14 +14 1024.2 1018.5
11 19.06 В 3 н/о н/о +11.9 -2.7 36 +11 +11 1024.5 1018.8
12 19.06 В 3 н/о н/о +11.1 -3.0 37 +10 +10 1024.5 1018.8
14 19.06 В 4 н/о н/о +9.5 -3.1 41 +7 +7 1024.0 1018.3 +18.2
15 19.06 В 3 н/о н/о +7.6 -3.9 44 +6 +6 1024.3 1018.6
17 19.06 В 3 н/о н/о +7.6 -3.0 47 +6 +6 1024.3 1018.6
18 19.06 В 2 н/о н/о +6.7 -3.5 48 +6 +6 1024.4 1018.7
20 19.06 В 3 н/о н/о +7.4 -2.6 49 +5 +5 1024.2 1018.5
21 19.06 СВ 2 н/о н/о +7.1 -3.4 47 +6 +6 1025.0 1019.3
23 19.06 СВ 2 н/о н/о +9.5 -0.7 49 +8 +8 1026.0 1020.3
00 20.06 СВ 5 н/о н/о +12.8 -0.1 41 +11 +11 1025.6 1019.9
02 20.06 С 4 н/о н/о +16.9 -0.3 31 +17 +17 1025.0 1019.3 +6.5
03 20.06 С 3 н/о н/о +19.1 -0.8 26 +20 +20 1023.8 1018.1
05 20.06 ЮЗ 4 н/о н/о +20.0 -2.3 22 +20 +20 1023.0 1017.3
06 20.06 Ю 6 н/о н/о +19.7 -2.6 22 +19 +19 1022.8 1017.1
08 20.06 Ю 4 н/о н/о +17.0 -2.1 27 +17 +17 1023.1 1017.4
09 20.06 Ю 4 н/о н/о +15.2 -2.2 30 +14 +14 1023.7 1018.0
11 20.06 Ю 4 н/о н/о +12.6 -1.7 37 +11 +11 1024.6 1018.9
12 20.06 ЮВ 4 н/о н/о +10.8 -3.3 37 +9 +9 1025.0 1019.3
14 20.06 Ю 3 н/о н/о +7.5 -4.6 42 +6 +6 1025.0 1019.3 +20.2
15 20.06 Ю 3 н/о н/о +6.9 -4.2 45 +5 +5 1024.8 1019.1
17 20.06 Ю 3 н/о н/о +5.1 -4.4 50 +3 +3 1024.2 1018.5
18 20.06 Ю 3 н/о н/о +4.7 -4.3 52 +2 +2 1024.3 1018.6
20 20.06 Ю 3 н/о н/о +3.6 -4.3 56 0 0 1024.5 1018.8
21 20.06 Ю 3 н/о н/о +2.5 -5.4 56 -1 -1 1024.9 1019.2
23 20.06 Ю 4 н/о н/о +7.2 -2.8 49 +4 +4 1026.0 1020.3
00 21.06 Ю 5 н/о н/о +11.2 -0.6 44 +9 +9 1026.3 1020.6
02 21.06 ЮВ 7 н/о н/о +16.7 +1.2 35 +16 +16 1025.2 1019.5 +2.3
03 21.06 ЮВ 6 н/о н/о +18.1 +1.6 33 +18 +18 1024.3 1018.6
05 21.06 Ю 5 н/о н/о +20.0 +1.9 30 +20 +20 1022.7 1017.0
06 21.06 Ю 6 н/о н/о +19.8 +1.3 29 +20 +20 1022.5 1016.8
08 21.06 Ю 5 н/о н/о +17.9 +0.6 31 +18 +18 1023.4 1017.7
09 21.06 Ю 4 н/о н/о +15.6 +0.6 36 +15 +15 1023.9 1018.2
11 21.06 Ю 5 н/о н/о +14.2 +0.8 40 +13 +13 1024.4 1018.7
12 21.06 Ю 6 н/о н/о +12.7 -0.2 41 +11 +11 1024.9 1019.2
14 21.06 Ю 3 н/о н/о +9.5 -1.2 47 +8 +8 1024.8 1019.1 +20.4
15 21.06 Ю 4 н/о н/о +9.1 -1.3 48 +7 +7 1024.5 1018.8
17 21.06 Ю 3 н/о н/о +7.0 -1.9 53 +4 +4 1023.7 1018.0
18 21.06 Ю 4 н/о н/о +6.3 -2.3 54 +3 +3 1023.7 1018.0
20 21.06 ЮЗ 4 н/о н/о +4.2 -2.9 60 +1 +1 1023.4 1017.7
21 21.06 ЮЗ 4 н/о н/о +3.9 -2.7 62 0 0 1024.0 1018.3
23 21.06 Ю 4 н/о н/о +6.9 -1.5 55 +4 +4 1025.2 1019.5
00 22.06 Ю 4 н/о н/о +11.0 +0.7 49 +9 +9 1025.7 1020.0
02 22.06 ЮВ 4 н/о н/о +18.8 +3.0 35 +19 +19 1024.6 1018.9 +3.4
03 22.06 В 3 н/о н/о +20.1 +2.5 31 +21 +21 комфорт 1023.6 1017.9
05 22.06 Ю 4 н/о н/о +22.1 +1.7 26 +22 +22 комфорт 1022.0 1016.3
06 22.06 Ю 3 н/о н/о +22.0 +1.1 25 +22 +22 комфорт 1022.1 1016.4
08 22.06 Ю 4 н/о н/о +19.8 +0.8 28 +20 +20 1022.5 1016.8
09 22.06 Ю 4 н/о н/о +16.2 -1.4 30 +16 +16 1022.9 1017.2
11 22.06 Ю 4 н/о н/о +13.0 -2.1 35 +12 +12 1023.7 1018.0
12 22.06 ЮЗ 4 н/о н/о +12.4 -1.9 37 +11 +11 1023.8 1018.1
14 22.06 Ю 5 н/о н/о +12.7 +0.1 42 +11 +11 1023.0 1017.3 +22.5
15 22.06 Ю 4 н/о н/о +11.1 +0.2 47 +9 +9 1022.9 1017.2
17 22.06 ЮЗ 4 н/о н/о +7.9 -1.6 51 +5 +5 1022.6 1016.9
18 22.06 ЮЗ 4 н/о н/о +7.2 -2.0 52 +4 +4 1022.4 1016.7
20 22.06 ЮЗ 4 н/о н/о +5.6 -2.2 57 +2 +2 1022.2 1016.5
21 22.06 ЮЗ 5 н/о н/о +5.4 -2.0 59 +2 +2 1023.0 1017.3
23 22.06 Ю 4 н/о н/о +8.9 +0.6 56 +6 +6 1024.2 1018.5
00 23.06 Ю 4 н/о н/о +12.4 +0.8 45 +11 +11 1024.5 1018.8
02 23.06 Ю 4 н/о н/о +19.3 +1.8 31 +19 +19 1023.7 1018.0 +4.9
03 23.06 Ю 6 н/о н/о +21.8 +2.5 28 +22 +22 комфорт 1022.9 1017.2
05 23.06 Ю 6 н/о н/о +23.8 +3.2 26 +23 +23 комфорт 1021.4 1015.7
06 23.06 Ю 5 н/о н/о +23.3 +2.7 26 +23 +23 комфорт 1021.3 1015.6
08 23.06 Ю 4 н/о н/о +20.8 +2.6 30 +21 +21 комфорт 1021.6 1015.9
09 23.06 Ю 4 н/о н/о +18.5 +2.4 34 +19 +19 1022.4 1016.7
11 23.06 ЮЗ 4 н/о н/о +14.4 -0.5 36 +14 +14 1023.5 1017.8
12 23.06 Ю 5 н/о н/о +15.8 +1.9 39 +15 +15 1023.7 1018.0
14 23.06 Ю 6 н/о н/о +14.9 +1.4 40 +14 +14 1023.8 1018.1 +24.1
15 23.06 Ю 6 н/о н/о +14.0 +1.0 41 +12 +12 1023.7 1018.0
17 23.06 Ю 6 н/о н/о +12.5 +0.3 43 +10 +10 1023.1 1017.4
18 23.06 Ю 5 н/о н/о +12.5 0.0 42 +11 +11 1022.9 1017.2
20 23.06 Ю 5 н/о н/о +11.4 -0.1 45 +9 +9 1022.8 1017.1
21 23.06 Ю 5 н/о н/о +11.5 +0.3 46 +9 +9 1023.3 1017.6
23 23.06 ЮВ 6 н/о н/о +13.0 +1.0 44 +11 +11 1024.0 1018.3
00 24.06 ЮВ 6 н/о н/о +16.3 +2.0 38 +15 +15 1024.4 1018.7
02 24.06 ЮВ 7 н/о н/о +19.7 +3.4 34 +20 +20 1023.4 1017.7 +11.3
03 24.06 ЮВ 7 н/о н/о +22.1 +4.2 31 +22 +22 комфорт 1022.4 1016.7

 

Местоположение метеостанции Birdsville Airport (Квинсленд, Австралия): широта -25.90 долгота 139.35 высота над уровнем моря 47 м.

В архиве по умолчанию представлена погода в Birdsville Airport за последнюю неделю. Архивные данные за месяц целиком и за предыдущие месяцы, начиная с января 2011 года, Вы можете получить, выбрав интересующий диапазон дат из раскрывающегося списка и нажав кнопку "Ввод!".


*Определитесь, кто Вы:
робот инопланетянин человек

Внимание! Время в таблицах - всемирное. Для получения местного времени необходимо прибавить поправку, которая в Birdsville Airport равна 10 ч.

Смотрите также архив погоды в соседних городах и на ближайших метеорологических станциях:

Погода в Moomba Airport (Южная Австралия, Австралия) (259 км)
Погода в Ballera Gas Field (Квинсленд, Австралия) (298 км)
Погода в Oodnadatta Airport (Южная Австралия, Австралия) (429 км)
Погода в Marree Aero (Южная Австралия, Австралия) (437 км)
Погода в Phosphate Hill Airport (Квинсленд, Австралия) (460 км)
Погода в Jervois (Северная территория, Австралия) (461 км)
Погода в Tibooburra Airport (Новый Южный Уэльс, Австралия) (476 км)
Погода в Trepell Airport (Квинсленд, Австралия) (479 км)
Погода в Thargomindah Airport (Квинсленд, Австралия) (499 км)
Погода в Leigh Creek Airport (Южная Австралия, Австралия) (531 км)

Пояснения к столбцам:

Ветер - указаны скорость ветра в м/с - средняя за 10 мин, порывы в срок и между сроками (в фигурных скобках) и направление, откуда дует ветер: С - северный, СВ - северо-восточный, В - восточный, ЮВ - юго-восточный, Ю - южный, ЮЗ - юго-западный, З - западный, СЗ - северо-западный.
Видимость - горизонтальная дальность видимости в метрах или километрах. При видимости от 1 до 10 км при отсутствии осадков обычно наблюдается дымка, при ухудшении видимости до 1 км и менее - туман. В сухую погоду видимость может ухудшаться дымом, пылью или мглою.
Явления - указаны атмосферные явления, наблюдавшиеся в срок или в последний час перед сроком; фигурными скобками обозначены явления, наблюдавшиеся между сроками (за 1-3 часа до срока); квадратными скобками обозначены град или гололедные отложения с указанием их диаметра в мм.
Облачность - указаны через наклонную черту общая и нижняя облачность в баллах и высота нижней границы облаков в метрах; квадратными скобками обозначены формы облаков: Ci - перистые, Cs - перисто-слоистые, Cc - перисто-кучевые, Ac - высококучевые, As - высокослоистые, Sc - слоисто-кучевые, Ns - слоисто-дождевые, Cu - кучевые, Cb - кучево-дождевые. Подробнее классификацию облаков см. в Атласе облаков (PDF).
T - Температура воздуха - температура, измеренная на высоте 2 м над землей.
Td - Температура точки росы - температура, при понижении до которой содержащийся в воздухе водяной пар достигнет насыщения.
f - Относительная влажность воздуха - влажноcть воздуха, измеренная на высоте 2 м над землей.
Te - Эффективная температура - температура, которую ощущает одетый по сезону человек в тени. Характеристика душности погоды. При расчете учитывается влияние влажности воздуха и скорости ветра на теплоощущения человека.
Tes - Эффективная температура на солнце - температура, которую ощущает человек, с поправкой на солнечный нагрев. Характеристика знойности погоды. Зависит от высоты солнца над горизонтом, облачности и скорости ветра. Ночью, в пасмурную погоду, а также при ветре 12 м/с и более поправка равна нулю.
P - Атмосферное давление - приведенное к уровню моря атмосферное давление.
Po - Атмосферное давление - измеренное на уровне метеостанции атмосферное давление.
Tmin - Минимальная температура - минимум температуры воздуха на высоте 2 м над землей.
Tmax - Максимальная температура - максимум температуры воздуха на высоте 2 м над землей.
R - Количество осадков - Количество выпавших осадков за период времени, мм. При наведении курсора мыши на число - период времени, за который выпало указанное количество осадков.
R24 - Количество осадков - Количество выпавших осадков за 24 часа, мм.
S - Снежный покров - Высота снежного покрова, см. При наведении курсора мыши на число - состояние снежного покрова и степень покрытия местности в баллах.